Location: Unspecified
(40.9447°N, 78.9903°W)
Time: 06:34:01
(UTC-05:00)

Tiangong - Visible Passes

Search period start: 09 December 2023 00:00
Search period end: 19 December 2023 00:00
Orbit: 372 x 383 km, 41.5° (Epoch: 08 December)

Date Brightness Start Highest point End Pass type
(mag) Time Alt. Az. Time Alt. Az. Time Alt. Az.
14 Dec 0.9 06:33:29 10° S 06:35:12 14° SSE 06:36:56 10° ESE visible
16 Dec 0.2 06:05:13 10° SSW 06:07:41 22° SSE 06:10:09 10° E visible
17 Dec 1.0 05:06:14 12° SE 05:06:14 12° SE 05:07:18 10° ESE visible
17 Dec -1.4 06:39:03 10° WSW 06:42:04 52° SSE 06:45:07 10° E visible
18 Dec -0.8 05:39:46 31° S 05:40:06 32° SSE 05:42:57 10° E visible
